[[{"header":{"parameterUnit":"m.s-1","parameterCategory":1,"la1":30.2991,"la2":30.254,"lo1":-89.0895,"lo2":-89.0444,"dx":0.0017,"dy":0.0017,"nx":28,"ny":28,"refTime":"2023-01-27T15:00:00:Z","depth":0,"parameterNumber":2,"parameterNumberName":"U-component_of_WINDS"},"data":[0,0,0,0,0,0,0,0,0,0,0,0,0,0,0,0,0,0,0,0,0,0,0,0,0,0,0,0,0,0,0,0,0,0,0,0,0,0,0,0,0,0,0,0,0,0,0,0,0,0,0,0,0,0,0,0,0,0,-2.6869,-2.687,0,-2.6927,-2.6928,-2.6928,-2.6886,-2.6884,-2.6882,-2.6881,-2.694,-2.6944,-2.6947,0,0,0,0,0,0,0,0,0,0,0,0,0,-2.6723,-2.6726,-2.6869,-2.687,-2.6871,-2.6927,-2.6928,-2.6928,-2.6887,-2.6884,-2.6882,-2.688,-2.6939,-2.6943,-2.6947,0,0,0,0,0,0,0,0,0,0,0,0,0,-2.6784,-2.6727,-2.6869,-2.6856,-2.6856,-2.6927,-2.6928,-2.6929,-2.6887,-2.6884,-2.6881,-2.6879,-2.6938,-2.6943,-2.6948,-2.7034,0,0,-2.6963,-2.6965,0,0,0,0,0,0,0,0,-2.6781,-2.679,-2.6858,-2.6857,-2.6857,-2.6896,-2.6898,-2.6964,-2.6888,-2.6875,-2.6881,-2.6877,-2.6928,-2.6934,-2.6951,-2.7037,-2.7039,-2.6963,-2.6966,-2.6968,-2.697,0,0,0,0,0,0,0,-2.6777,-2.6787,-2.6892,-2.6859,-2.6858,-2.6848,-2.6854,-2.691,-2.6917,-2.6876,-2.6873,-2.6881,-2.6927,-2.6946,-2.6952,-2.704,-2.6963,-2.6968,-2.6971,-2.6973,-2.72,-2.7203,0,0,0,0,0,0,-2.6774,-2.6784,-2.689,-2.6894,-2.6811,-2.6853,-2.6859,-2.6887,-2.6916,-2.6918,-2.6883,-2.6878,-2.6939,-2.6946,-2.6954,-2.7056,-2.6968,-2.6973,-2.6976,-2.7197,-2.7201,-2.7204,0,0,0,0,0,0,-2.6771,-2.6783,-2.6888,-2.6838,-2.6851,-2.6858,-2.689,-2.6889,-2.6908,-2.6921,-2.6922,-2.6901,-2.6937,-2.6947,-2.7014,-2.7058,-2.6975,-2.698,-2.7193,-2.7198,-2.7202,-2.7262,0,0,0,0,0,0,-2.6767,-2.6783,-2.6815,-2.6839,-2.6853,-2.6948,-2.6892,-2.6892,-2.6916,-2.6911,-2.6938,-2.694,-2.6935,-2.7007,-2.7019,-2.7063,-2.6984,-2.7189,-2.7195,-2.7201,-2.7256,-2.7268,-2.7278,0,0,0,0,0,-2.6762,-2.683,-2.6817,-2.683,-2.6894,-2.695,-2.6958,-2.6952,-2.692,-2.6953,-2.6962,-2.6939,-2.7051,-2.7014,-2.7028,-2.7074,-2.7187,-2.7194,-2.72,-2.7251,-2.7266,-2.7278,0,0,0,0,0,0,-2.6812,-2.6833,-2.6819,-2.6897,-2.6922,-2.6943,-2.6984,-2.6968,-2.7002,-2.6996,-2.6986,-2.6993,-2.7064,-2.7076,-2.7034,-2.7158,-2.7114,-2.7124,-2.7148,-2.7162,-2.7173,-2.7168,-2.6988,0,0,0,0,0,-2.6832,-2.6875,-2.6892,-2.6959,-2.6972,-2.6977,-2.7,-2.6993,-2.7019,-2.7029,-2.7043,-2.7068,-2.7109,-2.7136,-2.7175,-2.7258,-2.7263,-2.7296,-2.7307,-2.7316,-2.7325,-2.7369,-2.7384,-2.7226,-2.7226,-2.7226,0,0,-2.6874,-2.6891,-2.6919,-2.697,-2.6988,-2.7033,-2.6986,-2.7035,-2.7068,-2.7037,-2.7101,-2.7112,-2.714,-2.7216,-2.725,-2.7228,-2.7369,-2.7325,-2.7332,-2.7336,-2.7377,-2.7392,-2.7405,-2.7231,-2.723,-2.723,0,0,-2.6974,-2.6991,-2.7049,-2.7068,-2.7097,-2.7099,-2.7113,-2.7136,-2.7142,-2.7207,-2.7184,-2.7223,-2.7294,-2.7315,-2.7335,-2.7443,-2.7423,-2.7456,-2.7513,-2.7556,-2.7568,-2.7579,-2.7617,-2.763,-2.7464,-2.7464,-2.7464,0,-2.7023,-2.7089,-2.7081,-2.7132,-2.7155,-2.7128,-2.7187,-2.7206,-2.7246,-2.7262,-2.7237,-2.7325,-2.7343,-2.7422,-2.7449,-2.7466,-2.7481,-2.7452,-2.7567,-2.7578,-2.7588,-2.7624,-2.7638,-2.7468,-2.7467,-2.7467,-2.7467,0,-2.7147,-2.7194,-2.7237,-2.7276,-2.7304,-2.7358,-2.7359,-2.7388,-2.7379,-2.7384,-2.7449,-2.7469,-2.7511,-2.7529,-2.7521,-2.7608,-2.7594,-2.7568,-2.7523,-2.7607,-2.764,-2.7654,-2.7473,-2.7472,-2.7471,-2.747,0,0,-2.728,-2.7313,-2.7329,-2.7346,-2.7375,-2.7411,-2.7465,-2.7505,-2.753,-2.7559,-2.7603,-2.7664,-2.764,-2.7663,-2.7657,-2.7695,-2.7778,-2.7665,-2.7665,-2.7684,-2.7874,-2.7892,-2.7908,-2.7765,-2.7768,-2.777,-2.7872,0,-2.738,-2.7473,-2.7467,-2.7554,-2.7597,-2.7572,-2.7619,-2.7642,-2.7648,-2.7685,-2.7692,-2.7735,-2.7701,-2.7715,-2.7751,-2.776,-2.7816,-2.7753,-2.7806,-2.7808,-2.7799,-2.7926,-2.7945,-2.804,-2.7885,-2.7887,-2.7888,0,-2.7509,-2.7541,-2.7633,-2.7655,-2.7673,-2.7715,-2.7751,-2.7787,-2.7813,-2.7815,-2.784,-2.7828,-2.7882,-2.7836,-2.791,-2.7867,-2.7889,-2.7897,-2.79,-2.7904,-2.7853,-2.7932,-2.807,-2.8084,-2.7909,-2.7907,-2.7906,0,-2.7595,-2.7662,-2.7725,-2.774,-2.7768,-2.7798,-2.7811,-2.7834,-2.7859,-2.7891,-2.7907,-2.7945,-2.7966,-2.7996,-2.7994,-2.7961,-2.8069,-2.8024,-2.8072,-2.8072,-2.8095,-2.8093,-2.8237,-2.8111,-2.8111,-2.811,-2.811,0,-2.7707,-2.7764,-2.7764,-2.7802,-2.7865,-2.7858,-2.792,-2.793,-2.7951,-2.7991,-2.7973,-2.8011,-2.8007,-2.8045,-2.8044,-2.8106,-2.8115,-2.8118,-2.8117,-2.8119,-2.8119,-2.8133,-2.8126,-2.8114,-2.8113,-2.8113,-2.8112,0,-2.7814,-2.7816,-2.7883,-2.7904,-2.7911,-2.7956,-2.7974,-2.801,-2.8015,-2.8066,-2.8078,-2.8085,-2.813,-2.8131,-2.8182,-2.8181,-2.8256,-2.8248,-2.8247,-2.8245,-2.8293,-2.8288,-2.845,-2.8471,-2.8332,-2.8333,-2.8334,0,-2.7885,-2.7928,-2.7953,-2.7978,-2.7993,-2.8035,-2.8059,-2.8054,-2.8081,-2.8114,-2.8146,-2.8189,-2.8222,-2.8295,-2.8305,-2.8344,-2.8336,-2.839,-2.8342,-2.8342,-2.8336,-2.8333,-2.8337,-2.8399,-2.8401,-2.8402,-2.8403,0,-2.801,-2.8009,-2.8045,-2.8082,-2.8112,-2.8141,-2.8168,-2.819,-2.8188,-2.8219,-2.8264,-2.829,-2.8342,-2.8384,-2.8422,-2.8436,-2.8419,-2.8418,-2.8431,-2.8434,-2.8431,-2.8432,-2.8272,-2.8414,-2.8413,-2.8412,-2.8412,-2.8411,-2.8101,-2.8137,-2.816,-2.8201,-2.8221,-2.8246,-2.8281,-2.829,-2.8328,-2.8369,-2.8364,-2.8414,-2.8438,-2.8487,-2.8504,-2.8543,-2.8524,-2.8544,-2.8548,-2.8553,-2.8558,-2.8425,-2.855,-2.855,-2.855,-2.8549,-2.8549,0,-2.8224,-2.8238,-2.8276,-2.8313,-2.8345,-2.8327,-2.8356,-2.8384,-2.8428,-2.8452,-2.8485,-2.8537,-2.8577,-2.8591,-2.8631,-2.8659,-2.8653,-2.867,-2.8667,-2.867,-2.8573,-2.8557,-2.8674,-2.8674,-2.8674,-2.8674,-2.8674,-2.8674,-2.8292,-2.8353,-2.8354,-2.8425,-2.8438,-2.8486,-2.8504,-2.8527,-2.8546,-2.8604,-2.8638,-2.8646,-2.8666,-2.8707,-2.8744,-2.8747,-2.8762,-2.8782,-2.8782,-2.869,-2.8677,-2.8665,-2.865,-2.8786,-2.8786,-2.8876,-2.8877,-2.8878]},{"header":{"parameterUnit":"m.s-1","parameterCategory":1,"la1":30.2991,"la2":30.254,"lo1":-89.0895,"lo2":-89.0444,"dx":0.0017,"dy":0.0017,"nx":28,"ny":28,"refTime":"2023-01-27T15:00:00:Z","depth":0,"parameterNumber":3,"parameterNumberName":"V-component_of_WINDS"},"data":[0,0,0,0,0,0,0,0,0,0,0,0,0,0,0,0,0,0,0,0,0,0,0,0,0,0,0,0,0,0,0,0,0,0,0,0,0,0,0,0,0,0,0,0,0,0,0,0,0,0,0,0,0,0,0,0,0,0,3.5313,3.5313,0,3.5371,3.5372,3.5373,3.5333,3.5331,3.5329,3.5327,3.5382,3.5385,3.5388,0,0,0,0,0,0,0,0,0,0,0,0,0,3.516,3.5163,3.5313,3.5313,3.5314,3.5371,3.5372,3.5373,3.5333,3.5331,3.5329,3.5327,3.5381,3.5385,3.5389,0,0,0,0,0,0,0,0,0,0,0,0,0,3.5223,3.5164,3.5312,3.5301,3.5301,3.5371,3.5372,3.5373,3.5333,3.5331,3.5328,3.5325,3.538,3.5384,3.5389,3.5472,0,0,3.5403,3.5405,0,0,0,0,0,0,0,0,3.522,3.5229,3.5302,3.5302,3.5302,3.5342,3.5338,3.5406,3.5334,3.5321,3.5327,3.5324,3.5371,3.5376,3.5393,3.5475,3.5477,3.5404,3.5407,3.5409,3.541,0,0,0,0,0,0,0,3.5215,3.5226,3.5336,3.5303,3.5303,3.5291,3.5297,3.5351,3.536,3.5322,3.5319,3.5327,3.537,3.5388,3.5394,3.5478,3.5404,3.5408,3.5411,3.5413,3.5628,3.5631,0,0,0,0,0,0,3.5213,3.5223,3.5334,3.5337,3.5253,3.5296,3.5303,3.5332,3.5359,3.5361,3.5329,3.5325,3.5382,3.5388,3.5395,3.5492,3.5409,3.5413,3.5416,3.5625,3.5629,3.5632,0,0,0,0,0,0,3.521,3.5223,3.5331,3.5279,3.5292,3.5302,3.5334,3.5334,3.5352,3.5365,3.5366,3.5346,3.538,3.5389,3.5453,3.5494,3.5415,3.5419,3.5622,3.5626,3.563,3.5688,0,0,0,0,0,0,3.5205,3.5222,3.5255,3.528,3.5295,3.539,3.5337,3.5337,3.5361,3.5356,3.5381,3.5383,3.5378,3.5446,3.5458,3.5499,3.5423,3.5618,3.5624,3.5629,3.5682,3.5694,3.5704,0,0,0,0,0,3.52,3.5268,3.5257,3.5271,3.5337,3.5392,3.5401,3.5395,3.5365,3.5397,3.5405,3.5382,3.5488,3.5453,3.5466,3.5509,3.5615,3.5622,3.5628,3.5678,3.5692,3.5703,0,0,0,0,0,0,3.5246,3.5271,3.5259,3.5338,3.5364,3.5386,3.5426,3.5411,3.5444,3.5437,3.5428,3.5434,3.5501,3.5512,3.5472,3.5589,3.5547,3.5556,3.558,3.5593,3.5603,3.5598,3.5427,0,0,0,0,0,3.5266,3.531,3.533,3.5397,3.5411,3.5417,3.544,3.5434,3.546,3.5469,3.5482,3.5506,3.5544,3.5569,3.5606,3.5685,3.5688,3.572,3.5731,3.5739,3.5747,3.5787,3.5801,3.5653,3.5653,3.5653,0,0,3.5306,3.5325,3.5354,3.5407,3.5426,3.547,3.5426,3.5475,3.5507,3.5476,3.5538,3.5548,3.5574,3.5645,3.5677,3.5656,3.5788,3.5748,3.5754,3.5757,3.5795,3.5809,3.5821,3.5658,3.5657,3.5656,0,0,3.5401,3.5422,3.5479,3.55,3.553,3.5533,3.5547,3.5571,3.5577,3.5639,3.5617,3.5654,3.5721,3.574,3.5758,3.586,3.584,3.5873,3.5926,3.5966,3.5977,3.5987,3.6021,3.6034,3.588,3.5881,3.5881,0,3.5447,3.5515,3.5511,3.5561,3.5584,3.5561,3.5617,3.5637,3.5676,3.5692,3.5668,3.5751,3.5767,3.5841,3.5866,3.5883,3.5896,3.5868,3.5976,3.5986,3.5996,3.6028,3.6041,3.5884,3.5884,3.5883,3.5883,0,3.5568,3.5615,3.5658,3.5698,3.5726,3.578,3.5781,3.581,3.5802,3.5807,3.5869,3.5887,3.5926,3.5943,3.5935,3.6016,3.6002,3.5978,3.5934,3.6013,3.6043,3.6056,3.5889,3.5888,3.5887,3.5886,0,0,3.5692,3.573,3.5746,3.5763,3.5794,3.5829,3.5881,3.592,3.5944,3.5972,3.6013,3.6071,3.6048,3.6069,3.6063,3.6098,3.6174,3.6069,3.6069,3.6085,3.6262,3.6278,3.6293,3.6162,3.6165,3.6167,3.6259,0,3.5788,3.588,3.5877,3.5962,3.6004,3.5982,3.6027,3.6049,3.6056,3.6091,3.6097,3.6137,3.6105,3.6117,3.6151,3.6158,3.6209,3.6152,3.6198,3.6199,3.6189,3.6309,3.6326,3.6413,3.6271,3.6273,3.6274,0,3.5911,3.5944,3.6034,3.6057,3.6075,3.6115,3.615,3.6185,3.621,3.6212,3.6235,3.6223,3.6273,3.623,3.6297,3.6258,3.6277,3.6283,3.6286,3.6288,3.624,3.6311,3.644,3.6452,3.6293,3.6292,3.629,0,3.599,3.6057,3.6119,3.6134,3.6164,3.6193,3.6206,3.6229,3.6252,3.6282,3.6297,3.6332,3.6351,3.6378,3.6374,3.6344,3.6442,3.6399,3.6443,3.6443,3.6462,3.6461,3.6593,3.6479,3.6479,3.6478,3.6478,0,3.6095,3.615,3.6154,3.6192,3.6252,3.6248,3.6306,3.6317,3.6337,3.6374,3.6358,3.6393,3.6388,3.6423,3.6421,3.6475,3.6485,3.6486,3.6484,3.6486,3.6485,3.6496,3.6489,3.6482,3.6481,3.648,3.648,0,3.6192,3.6198,3.6263,3.6287,3.6294,3.6336,3.6355,3.639,3.6395,3.6442,3.6453,3.6461,3.6501,3.6501,3.6546,3.6545,3.6611,3.6604,3.6603,3.6601,3.6643,3.6638,3.6785,3.6803,3.6679,3.6681,3.6682,0,3.6258,3.6299,3.6328,3.6352,3.6368,3.6408,3.6432,3.643,3.6455,3.6486,3.6516,3.6555,3.6585,3.665,3.6658,3.6692,3.6684,3.6733,3.6688,3.6688,3.6681,3.6678,3.6681,3.6741,3.6742,3.6743,3.6744,0,3.6373,3.6373,3.641,3.6447,3.6476,3.6505,3.6531,3.6552,3.6552,3.6581,3.6622,3.6646,3.6693,3.6731,3.6764,3.6775,3.6759,3.6759,3.677,3.6771,3.6767,3.6767,3.6624,3.6754,3.6753,3.6753,3.6752,3.6752,3.6454,3.6489,3.6515,3.6555,3.6575,3.66,3.6633,3.6643,3.6678,3.6717,3.6713,3.6758,3.678,3.6823,3.6838,3.6872,3.6854,3.6871,3.6875,3.6879,3.6882,3.6765,3.6878,3.6878,3.6877,3.6877,3.6877,0,3.6566,3.6581,3.6619,3.6657,3.6688,3.6673,3.6701,3.6727,3.6768,3.6791,3.6822,3.6868,3.6904,3.6916,3.695,3.6975,3.6968,3.6984,3.6981,3.6983,3.6897,3.6882,3.6989,3.6989,3.6989,3.6989,3.6989,3.6989,3.6628,3.6686,3.669,3.6757,3.6771,3.6817,3.6834,3.6856,3.6874,3.6927,3.6958,3.6966,3.6983,3.7019,3.7051,3.7053,3.7065,3.7084,3.7083,3.7001,3.699,3.6979,3.6965,3.7087,3.7087,3.7166,3.7166,3.7167]}]]